N2RFA-13 Weather Reports


Display with metric or nautical units.
time (UTC)temp
F
wind
direction
speed
MPH
gust
MPH
rain 1hr
in
rain 24hr
in
rain mn
in
humidity
%
barometer
mb
20200713005511 70 82 0.0 0.0 0.00 0.00 0.00 88 1008.4
20200713005010 70 82 0.0 0.0 0.00 0.00 0.00 87 1008.3
20200713004524 70 82 0.0 0.0 0.00 0.00 0.00 88 1008.3
20200713004013 70 82 0.0 0.0 0.00 0.00 0.00 87 1008.2
20200713003511 71 82 0.0 0.0 0.00 0.00 0.00 87 1008.2
20200713003038 71 82 0.0 1.0 0.00 0.00 0.00 87 1008.2
20200713002509 71 82 0.0 1.0 0.00 0.00 0.00 86 1008.1
20200713002010 71 82 0.0 1.0 0.00 0.00 0.00 86 1008.1
20200713001511 71 82 0.0 1.0 0.00 0.00 0.00 85 1008.2
20200713001008 71 82 0.0 0.0 0.00 0.00 0.00 84 1008.2
20200713000508 72 82 0.0 0.0 0.00 0.00 0.00 83 1008.1
20200713000012 72 82 0.0 0.0 0.00 0.00 0.00 82 1008.1
20200712235507 73 82 0.0 0.0 0.00 0.03 0.00 81 1008.0
20200712235007 73 82 0.0 1.0 0.00 0.03 0.00 80 1007.9
20200712234507 74 82 0.0 1.0 0.00 0.03 0.00 77 1007.8
20200712234014 75 82 0.0 2.0 0.00 0.03 0.00 73 1007.8
20200712233506 77 82 0.0 5.0 0.00 0.03 0.00 70 1007.9
20200712233058 78 231 1.0 5.0 0.00 0.03 0.00 67 1008.0
20200712232508 78 133 0.0 6.0 0.00 0.03 0.00 65 1007.9
20200712232009 77 42 0.0 6.0 0.00 0.03 0.00 67 1007.8
20200712231510 76 108 0.0 1.0 0.00 0.03 0.00 69 1007.7
20200712231008 76 227 0.0 0.0 0.00 0.03 0.00 69 1007.6
20200712230505 76 227 0.0 1.0 0.00 0.03 0.00 72 1007.4
20200712225505 77 227 0.0 1.0 0.00 0.03 0.00 70 1007.2
20200712225005 77 227 0.0 1.0 0.00 0.03 0.00 71 1007.2
20200712224528 77 227 0.0 1.0 0.00 0.03 0.00 72 1007.1
20200712224005 77 227 0.0 1.0 0.00 0.03 0.00 70 1007.1
20200712223506 77 227 0.0 1.0 0.00 0.03 0.00 70 1007.0
20200712223013 78 227 0.0 1.0 0.00 0.03 0.00 69 1006.9
20200712222504 78 227 0.0 1.0 0.00 0.03 0.00 69 1007.0
20200712222003 78 227 0.0 1.0 0.00 0.03 0.00 67 1007.0
20200712221506 78 227 0.0 1.0 0.00 0.03 0.00 66 1007.0
20200712221003 79 226 0.0 1.0 0.00 0.03 0.00 66 1006.9
20200712220509 79 226 0.0 3.0 0.00 0.03 0.00 66 1007.0
20200712220021 79 110 0.0 1.0 0.00 0.03 0.00 68 1006.9
20200712215502 79 110 0.0 1.0 0.00 0.03 0.00 64 1006.8
20200712215003 79 306 0.0 1.0 0.00 0.03 0.00 65 1006.8
20200712214503 79 307 0.0 2.0 0.00 0.03 0.00 63 1006.8
20200712214002 79 306 0.0 2.0 0.00 0.03 0.00 64 1006.8
20200712213503 80 295 0.0 3.0 0.00 0.03 0.00 62 1006.8
20200712213002 80 295 0.0 3.0 0.00 0.03 0.00 62 1006.8
20200712212501 81 308 0.0 2.0 0.00 0.03 0.00 61 1006.8
20200712212001 81 128 0.0 4.0 0.00 0.03 0.00 55 1006.8
20200712211736 81 220 0.0 4.0 0.00 0.03 0.00 57 1006.8
20200712211059 80 254 0.0 2.0 0.00 0.03 0.00 63 1006.7
20200712210559 81 128 0.0 1.0 0.00 0.03 0.00 63 1006.8
20200712210229 80 169 0.0 1.0 0.00 0.03 0.00 61 1006.8
20200712205601 80 253 0.0 2.0 0.00 0.03 0.00 62 1006.9
20200712205102 81 172 0.0 3.0 0.00 0.03 0.00 62 1006.9
20200712204723 81 335 1.0 3.0 0.00 0.03 0.00 60 1006.8
20200712204058 82 134 0.0 2.0 0.00 0.03 0.00 51 1006.8
20200712203557 82 219 0.0 2.0 0.00 0.03 0.00 54 1007.0
20200712203120 83 46 0.0 3.0 0.00 0.03 0.00 59 1007.0
20200712202557 83 275 0.0 3.0 0.00 0.03 0.00 58 1007.1
20200712202108 82 243 0.0 1.0 0.00 0.03 0.00 57 1007.1
20200712201705 83 291 0.0 5.0 0.00 0.03 0.00 58 1007.0
20200712201056 84 101 0.0 5.0 0.00 0.03 0.00 49 1007.0
20200712200556 84 155 0.0 6.0 0.00 0.03 0.00 47 1007.1
20200712200127 84 236 1.0 6.0 0.00 0.03 0.00 50 1007.1
20200712195556 84 109 0.0 3.0 0.00 0.03 0.00 49 1007.1
20200712195055 85 167 0.0 3.0 0.00 0.03 0.00 49 1007.1
20200712194704 85 153 0.0 3.0 0.00 0.03 0.00 49 1007.0
20200712194113 85 131 0.0 4.0 0.00 0.03 0.00 48 1007.0
20200712193555 85 148 1.0 2.0 0.00 0.03 0.00 50 1007.1
20200712193141 85 32 0.0 3.0 0.00 0.03 0.00 49 1007.1
20200712192555 85 104 1.0 4.0 0.00 0.03 0.00 48 1007.2
20200712192106 85 95 0.0 4.0 0.00 0.03 0.00 49 1007.3
20200712191737 85 113 0.0 2.0 0.00 0.03 0.00 50 1007.3
20200712191055 85 202 0.0 5.0 0.00 0.03 0.00 52 1007.2
20200712190555 85 56 0.0 5.0 0.00 0.03 0.00 51 1007.3
20200712190136 85 139 0.0 5.0 0.00 0.03 0.00 50 1007.3
20200712185553 85 131 1.0 5.0 0.00 0.03 0.00 50 1007.3
20200712185053 85 221 1.0 4.0 0.00 0.03 0.00 50 1007.4
20200712184606 85 41 0.0 3.0 0.00 0.03 0.00 52 1007.4
20200712184053 85 15 0.0 5.0 0.00 0.03 0.00 57 1007.4
20200712183552 85 89 1.0 5.0 0.00 0.03 0.00 53 1007.4
20200712183145 85 111 0.0 3.0 0.00 0.03 0.00 53 1007.4
20200712182553 85 92 0.0 3.0 0.00 0.03 0.00 52 1007.5
20200712182053 86 112 0.0 2.0 0.00 0.03 0.00 58 1007.4
20200712181641 86 139 0.0 5.0 0.00 0.03 0.00 55 1007.5
20200712181109 86 122 1.0 6.0 0.00 0.03 0.00 52 1007.5
20200712180553 87 82 0.0 6.0 0.00 0.03 0.00 52 1007.5
20200712180223 87 197 0.0 4.0 0.00 0.03 0.00 51 1007.4
20200712175550 88 136 0.0 3.0 0.00 0.03 0.00 51 1007.3
20200712175050 88 136 1.0 4.0 0.00 0.03 0.00 50 1007.4
20200712174710 88 198 1.0 5.0 0.00 0.03 0.00 52 1007.2
20200712174050 88 90 2.0 5.0 0.00 0.03 0.00 49 1007.3
20200712173638 88 136 1.0 4.0 0.00 0.03 0.00 50 1007.4
20200712173139 88 105 0.0 3.0 0.00 0.03 0.00 53 1007.4
20200712172549 88 95 1.0 5.0 0.00 0.03 0.00 51 1007.4
20200712172048 88 195 1.0 5.0 0.00 0.03 0.00 51 1007.5
20200712171622 87 209 0.0 5.0 0.00 0.03 0.00 58 1007.4
20200712171047 87 218 0.0 5.0 0.00 0.03 0.00 54 1007.4
20200712170547 87 140 0.0 4.0 0.00 0.03 0.00 55 1007.5
20200712170201 87 89 0.0 5.0 0.00 0.03 0.00 54 1007.7
20200712165546 87 41 0.0 6.0 0.00 0.03 0.00 55 1007.6
20200712165056 88 139 2.0 6.0 0.00 0.03 0.00 52 1007.7
20200712164603 87 200 0.0 5.0 0.00 0.03 0.00 54 1007.7
20200712164044 87 152 0.0 3.0 0.00 0.03 0.00 56 1007.7
20200712163542 86 106 1.0 3.0 0.00 0.03 0.00 56 1007.8
20200712163108 86 354 1.0 6.0 0.00 0.03 0.00 57 1007.9
20200712162541 85 113 0.0 6.0 0.00 0.03 0.00 57 1007.9
20200712162040 85 171 0.0 3.0 0.00 0.03 0.00 60 1007.9
20200712161625 85 92 1.0 7.0 0.00 0.03 0.00 58 1007.9
20200712161039 85 121 1.0 4.0 0.00 0.03 0.00 57 1007.9
20200712160607 85 137 2.0 4.0 0.00 0.03 0.00 57 1007.9
20200712160057 85 122 1.0 5.0 0.00 0.03 0.00 58 1008.0
20200712155607 85 142 1.0 5.0 0.00 0.03 0.00 57 1008.0
20200712155040 84 104 0.0 4.0 0.00 0.03 0.00 60 1008.0
20200712154603 84 130 0.0 6.0 0.00 0.03 0.00 59 1008.1
20200712154036 83 122 0.0 6.0 0.00 0.03 0.00 61 1008.0
20200712153536 83 183 1.0 5.0 0.00 0.03 0.00 59 1008.0
20200712153100 83 90 1.0 6.0 0.00 0.03 0.00 59 1008.0
20200712152535 83 79 1.0 7.0 0.00 0.03 0.00 60 1008.0
20200712152036 83 73 1.0 7.0 0.00 0.03 0.00 58 1007.8
20200712151550 84 124 0.0 4.0 0.00 0.03 0.00 58 1007.9
20200712151038 84 88 1.0 6.0 0.00 0.03 0.00 58 1007.9
20200712150532 84 122 1.0 5.0 0.00 0.03 0.00 59 1007.9
20200712150101 83 100 1.0 4.0 0.00 0.03 0.00 61 1008.0
20200712145529 83 74 0.0 5.0 0.00 0.03 0.00 62 1008.0
20200712145032 82 141 1.0 7.0 0.00 0.03 0.00 62 1007.9
20200712144549 82 78 2.0 8.0 0.00 0.03 0.00 60 1007.9
20200712144028 82 151 1.0 8.0 0.00 0.03 0.00 62 1008.0
20200712143526 82 136 1.0 3.0 0.00 0.03 0.00 64 1007.9
20200712143047 81 127 0.0 6.0 0.00 0.03 0.00 64 1007.9
20200712142526 81 140 1.0 6.0 0.00 0.03 0.00 63 1007.9
20200712142027 81 95 2.0 5.0 0.00 0.03 0.00 63 1008.0
20200712141541 81 129 2.0 5.0 0.00 0.03 0.00 63 1007.9
20200712141025 81 151 1.0 5.0 0.00 0.03 0.00 63 1007.9
20200712140524 81 164 1.0 5.0 0.00 0.03 0.00 63 1008.0
20200712140035 81 144 1.0 5.0 0.00 0.03 0.00 64 1007.9
20200712135523 80 139 0.0 3.0 0.00 0.03 0.00 66 1007.8
20200712135024 80 299 0.0 6.0 0.00 0.03 0.00 68 1007.8
20200712134536 79 136 1.0 5.0 0.00 0.03 0.00 66 1007.9
20200712134019 79 138 1.0 4.0 0.00 0.03 0.00 67 1007.8
20200712133524 79 50 1.0 4.0 0.00 0.03 0.00 66 1007.8
20200712133035 79 131 1.0 5.0 0.00 0.03 0.00 67 1007.8
20200712132521 78 109 0.0 7.0 0.00 0.03 0.00 68 1007.9
20200712132014 78 53 1.0 7.0 0.00 0.03 0.00 68 1007.8
20200712131603 78 118 1.0 6.0 0.00 0.03 0.00 70 1007.8
20200712131020 77 143 1.0 7.0 0.00 0.03 0.00 70 1007.8
20200712130510 77 109 0.0 4.0 0.00 0.03 0.00 71 1007.6
20200712130027 76 225 1.0 7.0 0.00 0.03 0.00 72 1007.5
20200712125508 76 24 1.0 7.0 0.00 0.03 0.00 72 1007.5
20200712125007 75 75 1.0 6.0 0.00 0.03 0.00 73 1007.4
20200712124507 75 122 2.0 6.0 0.00 0.03 0.00 74 1007.3
20200712124006 74 75 0.0 5.0 0.00 0.03 0.00 77 1007.4
20200712123506 74 103 1.0 7.0 0.00 0.03 0.00 76 1007.2
20200712123002 73 81 1.0 7.0 0.00 0.03 0.00 76 1007.2
20200712122604 73 141 0.0 3.0 0.00 0.03 0.00 78 1007.2
20200712122116 73 111 0.0 5.0 0.00 0.03 0.00 78 1007.3
20200712121710 72 93 0.0 8.0 0.00 0.03 0.00 80 1007.2
20200712121057 72 108 1.0 8.0 0.00 0.03 0.00 79 1007.1
20200712120556 71 192 0.0 6.0 0.00 0.03 0.00 79 1007.1
20200712120127 71 72 1.0 6.0 0.00 0.03 0.00 80 1007.1
20200712115605 71 100 0.0 4.0 0.00 0.03 0.00 81 1007.2
20200712115054 71 160 1.0 4.0 0.00 0.03 0.00 80 1007.1
20200712114643 71 113 0.0 4.0 0.00 0.03 0.00 82 1007.1
20200712114106 71 81 0.0 4.0 0.00 0.03 0.00 82 1007.2
20200712113555 70 115 0.0 2.0 0.00 0.03 0.00 83 1007.1
20200712113122 70 117 0.0 2.0 0.00 0.03 0.00 83 1007.0
20200712112553 70 125 0.0 3.0 0.00 0.03 0.00 83 1007.0
20200712112052 70 153 0.0 2.0 0.00 0.03 0.00 84 1007.1
20200712111703 69 138 0.0 2.0 0.00 0.03 0.00 86 1007.1
20200712111049 69 136 0.0 2.0 0.00 0.03 0.00 87 1007.0
20200712110548 68 182 0.0 2.0 0.00 0.03 0.00 86 1007.0
20200712110106 68 129 0.0 1.0 0.00 0.03 0.00 87 1006.9
20200712105607 68 142 0.0 1.0 0.00 0.03 0.00 88 1006.8
20200712105056 68 226 0.0 1.0 0.00 0.03 0.00 88 1006.9
20200712104653 67 162 0.0 1.0 0.00 0.03 0.00 88 1006.8
20200712104044 67 142 0.0 1.0 0.00 0.03 0.00 88 1006.7
20200712103559 67 143 0.0 1.0 0.00 0.03 0.00 89 1006.7
20200712103202 67 148 0.0 1.0 0.00 0.03 0.00 89 1006.5
20200712102557 67 118 0.0 4.0 0.00 0.03 0.00 89 1006.6
20200712102043 67 117 0.0 4.0 0.00 0.03 0.00 90 1006.5
20200712101630 66 217 0.0 2.0 0.00 0.03 0.00 90 1006.6
20200712101111 66 120 0.0 2.0 0.00 0.03 0.00 91 1006.6
20200712100540 66 115 0.0 1.0 0.00 0.03 0.00 91 1006.5
20200712100129 66 115 0.0 1.0 0.00 0.03 0.00 91 1006.3
20200712095539 66 189 0.0 1.0 0.00 0.03 0.00 92 1006.4
20200712095039 66 190 0.0 1.0 0.00 0.03 0.00 92 1006.3
20200712094620 66 233 0.0 1.0 0.00 0.03 0.00 92 1006.2
20200712094038 66 106 0.0 1.0 0.00 0.03 0.00 92 1006.2
20200712093537 66 106 0.0 0.0 0.00 0.03 0.00 92 1006.1
20200712093102 66 106 0.0 1.0 0.00 0.03 0.00 92 1006.1
20200712092537 66 206 0.0 1.0 0.00 0.03 0.00 92 1006.1
20200712091034 66 123 0.0 0.0 0.00 0.03 0.00 92 1006.1
20200712090612 66 123 0.0 0.0 0.00 0.03 0.00 92 1006.0
20200712085537 67 124 0.0 2.0 0.00 0.03 0.00 91 1005.8
20200712085038 67 123 0.0 2.0 0.00 0.03 0.00 91 1005.8
20200712084621 67 188 0.0 0.0 0.00 0.03 0.00 91 1005.7
20200712084032 67 188 0.0 0.0 0.00 0.03 0.00 91 1005.6
20200712083533 67 188 0.0 2.0 0.00 0.03 0.00 91 1005.6
20200712083044 67 188 0.0 2.0 0.00 0.03 0.00 91 1005.5
20200712082546 67 143 0.0 1.0 0.00 0.03 0.00 91 1005.5
20200712082033 67 143 0.0 1.0 0.00 0.03 0.00 91 1005.5
20200712081550 67 143 0.0 0.0 0.00 0.03 0.00 91 1005.4
20200712081033 67 143 0.0 0.0 0.00 0.03 0.00 91 1005.6
20200712080532 67 143 0.0 3.0 0.00 0.03 0.00 91 1005.5
20200712080042 67 143 0.0 4.0 0.00 0.03 0.00 92 1005.5
20200712075533 67 206 0.0 4.0 0.00 0.05 0.00 92 1005.5
20200712075034 67 151 0.0 0.0 0.00 0.05 0.00 93 1005.4
20200712074553 67 151 0.0 0.0 0.00 0.05 0.00 93 1005.6
20200712074029 67 151 0.0 0.0 0.00 0.05 0.00 93 1005.6
20200712073529 67 151 0.0 0.0 0.00 0.05 0.00 93 1005.6
20200712073107 67 151 0.0 0.0 0.00 0.05 0.00 93 1005.7
20200712072533 67 151 0.0 0.0 0.00 0.05 0.00 93 1005.8
20200712072029 67 151 0.0 0.0 0.00 0.05 0.00 93 1005.9
20200712071538 67 151 0.0 0.0 0.00 0.05 0.00 93 1005.9
20200712071033 67 151 0.0 0.0 0.00 0.05 0.00 93 1005.8
20200712070527 67 151 0.0 0.0 0.00 0.05 0.00 92 1005.9
20200712070049 67 151 0.0 0.0 0.00 0.05 0.00 92 1005.9
20200712065532 67 158 0.0 1.0 0.00 0.07 0.00 92 1005.9
20200712065032 67 158 0.0 1.0 0.00 0.07 0.00 92 1005.8
20200712064531 67 131 0.0 0.0 0.00 0.07 0.00 92 1005.7
20200712064026 68 131 0.0 0.0 0.00 0.07 0.00 91 1005.7
20200712063529 68 131 0.0 0.0 0.00 0.07 0.00 91 1005.7
20200712063043 68 131 0.0 0.0 0.00 0.07 0.00 91 1005.7
20200712062524 68 131 0.0 1.0 0.00 0.07 0.00 90 1005.7
20200712062023 68 131 0.0 1.0 0.00 0.07 0.00 90 1005.7
20200712061600 68 131 0.0 1.0 0.00 0.07 0.00 90 1005.6
20200712061034 68 132 0.0 1.0 0.00 0.07 0.00 90 1005.6
20200712060525 68 40 0.0 1.0 0.00 0.07 0.00 90 1005.7
20200712060154 68 40 0.0 1.0 0.00 0.07 0.00 90 1005.7
20200712055522 68 194 0.0 2.0 0.00 0.07 0.00 90 1005.7
20200712055021 68 105 0.0 2.0 0.00 0.07 0.00 91 1005.8
20200712054542 68 159 0.0 1.0 0.00 0.07 0.00 91 1005.8
20200712054022 68 160 0.0 3.0 0.00 0.07 0.00 91 1005.8
20200712053520 68 137 0.0 3.0 0.00 0.07 0.00 91 1005.7
20200712053023 68 131 0.0 1.0 0.00 0.07 0.00 91 1005.7
20200712052519 68 143 0.0 1.0 0.00 0.07 0.00 91 1005.7
20200712052018 68 146 0.0 3.0 0.00 0.07 0.00 91 1005.7
20200712051520 68 147 0.0 3.0 0.00 0.07 0.00 92 1005.8
20200712051019 68 143 0.0 1.0 0.00 0.07 0.00 92 1005.8
20200712050523 69 147 0.0 2.0 0.00 0.07 0.00 92 1005.8
20200712050047 69 147 0.0 2.0 0.00 0.07 0.00 91 1005.8
20200712045521 69 168 0.0 2.0 0.00 0.07 0.00 92 1005.9
20200712045017 69 162 0.0 2.0 0.00 0.07 0.00 91 1005.8
20200712044603 69 120 0.0 1.0 0.00 0.07 0.00 91 1005.8
20200712044021 69 120 0.0 1.0 0.00 0.07 0.00 92 1005.8
20200712043514 69 144 0.0 1.0 0.00 0.07 0.00 92 1005.8
20200712043031 69 210 0.0 1.0 0.00 0.07 0.00 92 1005.9
20200712042514 69 148 0.0 1.0 0.00 0.07 0.00 92 1005.9
20200712042015 69 148 0.0 1.0 0.00 0.07 0.00 92 1006.0
20200712041541 69 197 0.0 1.0 0.00 0.07 0.00 93 1005.9
20200712041015 69 209 0.0 1.0 0.00 0.07 0.00 93 1006.0
20200712040516 69 209 0.0 1.0 0.00 0.07 0.00 93 1006.0
20200712040059 69 209 0.0 0.0 0.00 0.07 0.00 93 1006.0
20200712035511 69 209 0.0 3.0 0.00 0.11 0.07 93 1005.9
20200712035011 69 209 0.0 3.0 0.00 0.11 0.07 93 1005.9
20200712034514 69 181 0.0 4.0 0.00 0.11 0.07 93 1005.9
20200712034011 69 181 0.0 4.0 0.00 0.11 0.07 93 1005.8
20200712033510 69 88 0.0 1.0 0.00 0.11 0.07 94 1005.7
20200712033024 69 88 0.0 3.0 0.00 0.11 0.07 94 1005.8
20200712032517 69 85 0.0 3.0 0.00 0.11 0.07 94 1005.9
20200712032011 69 131 0.0 0.0 0.00 0.11 0.07 95 1005.8
20200712031527 69 148 0.0 0.0 0.00 0.11 0.07 95 1005.7
20200712031009 69 59 0.0 0.0 0.00 0.11 0.07 95 1005.7
20200712030509 69 59 0.0 1.0 0.00 0.11 0.07 95 1005.8
20200712030020 69 59 0.0 1.0 0.00 0.11 0.07 95 1005.8
20200712025510 69 59 0.0 1.0 0.00 0.22 0.07 95 1005.7
20200712025008 69 59 0.0 1.0 0.00 0.22 0.07 95 1005.7
20200712024537 69 58 0.0 0.0 0.00 0.22 0.07 95 1005.8
20200712024008 69 58 0.0 0.0 0.00 0.22 0.07 95 1005.7
20200712023516 69 58 0.0 0.0 0.00 0.22 0.07 95 1005.7
20200712023026 70 58 0.0 0.0 0.00 0.22 0.07 95 1005.6
20200712022510 70 58 0.0 0.0 0.00 0.22 0.07 95 1005.6
20200712022007 70 58 0.0 0.0 0.00 0.22 0.07 95 1005.6
20200712021508 70 58 0.0 0.0 0.00 0.22 0.07 95 1005.6
20200712021007 70 58 0.0 0.0 0.00 0.22 0.07 95 1005.7
20200712020508 70 58 0.0 0.0 0.00 0.22 0.07 95 1005.5
20200712020024 70 58 0.0 0.0 0.00 0.22 0.07 95 1005.5
20200712015506 70 58 0.0 0.0 0.00 0.36 0.07 95 1005.4
20200712015007 70 58 0.0 0.0 0.00 0.36 0.07 94 1005.4
20200712014509 70 58 0.0 0.0 0.00 0.36 0.07 94 1005.4
20200712014007 70 58 0.0 0.0 0.00 0.36 0.07 95 1005.4
20200712013507 71 58 0.0 1.0 0.00 0.36 0.07 95 1005.5
20200712013008 71 58 0.0 1.0 0.00 0.36 0.07 95 1005.5
20200712012508 71 58 0.0 0.0 0.00 0.36 0.07 95 1005.5
20200712012006 71 58 0.0 0.0 0.00 0.36 0.07 94 1005.5
20200712011515 71 58 0.0 0.0 0.00 0.36 0.07 94 1005.5
20200712011005 71 58 0.0 0.0 0.00 0.36 0.07 94 1005.4
20200712010505 71 58 0.0 0.0 0.00 0.36 0.07 94 1005.4
20200712010008 71 58 0.0 0.0 0.00 0.36 0.07 94 1005.4